SWA2178 KBNA-KMIA

Flight info

Callsign SWA2178
Flight time 1h 42m
Altitude 35000
Route FLAME4 GENDE ACORI FROGZ5
Aircraft B738/M-SDE2E3FGHIRWXY/LB1

Departure

Time 2026-05-04 22:30
Airport Nashville International Airport (KBNA)

Arrival

Time 2026-05-05 00:13
Airport Miami International Airport (KMIA)
Time Latitude Longitude Altitude Speed Heading
2026-05-04 22:05 36.12818 -86.67037 608 ft 0 kts 41°
2026-05-04 22:15 36.12813 -86.67042 608 ft 2 kts 59°
2026-05-04 22:15 36.12805 -86.67059 608 ft 2 kts 61°
2026-05-04 22:15 36.12801 -86.67075 608 ft 2 kts 79°
2026-05-04 22:16 36.12799 -86.67094 608 ft 2 kts 94°
2026-05-04 22:16 36.12802 -86.67112 608 ft 2 kts 109°
2026-05-04 22:16 36.12809 -86.67128 608 ft 2 kts 124°
2026-05-04 22:16 36.12813 -86.67135 608 ft 0 kts 130°
2026-05-04 22:23 36.12809 -86.67130 608 ft 2 kts 131°
2026-05-04 22:24 36.12788 -86.67127 608 ft 4 kts 219°
2026-05-04 22:24 36.12793 -86.67173 608 ft 7 kts 296°
2026-05-04 22:24 36.12825 -86.67230 608 ft 9 kts 305°
2026-05-04 22:24 36.12820 -86.67310 608 ft 11 kts 228°
2026-05-04 22:25 36.12754 -86.67386 608 ft 14 kts 222°
2026-05-04 22:25 36.12673 -86.67459 608 ft 14 kts 207°
2026-05-04 22:25 36.12593 -86.67516 608 ft 12 kts 217°
2026-05-04 22:25 36.12524 -86.67596 608 ft 13 kts 221°
2026-05-04 22:26 36.12454 -86.67667 608 ft 12 kts 210°
2026-05-04 22:26 36.12380 -86.67697 608 ft 10 kts 197°
2026-05-04 22:26 36.12357 -86.67760 608 ft 8 kts 289°
2026-05-04 22:26 36.12374 -86.67823 608 ft 6 kts 288°
2026-05-04 22:27 36.12383 -86.67856 608 ft 0 kts 288°
2026-05-04 22:28 36.12383 -86.67857 608 ft 1 kts 288°
2026-05-04 22:28 36.12392 -86.67893 608 ft 6 kts 286°
2026-05-04 22:29 36.12394 -86.67963 608 ft 8 kts 236°
2026-05-04 22:29 36.12360 -86.67985 608 ft 0 kts 198°
2026-05-04 22:29 36.12336 -86.67996 608 ft 18 kts 198°
2026-05-04 22:29 36.11981 -86.68137 608 ft 87 kts 197°
2026-05-04 22:30 36.11199 -86.68448 609 ft 143 kts 197°
2026-05-04 22:30 36.10178 -86.68837 996 ft 155 kts 198°
2026-05-04 22:30 36.09206 -86.69173 1837 ft 145 kts 197°
2026-05-04 22:30 36.08194 -86.69446 2367 ft 157 kts 193°
2026-05-04 22:31 36.07100 -86.69601 3004 ft 162 kts 186°
2026-05-04 22:31 36.05908 -86.69684 3373 ft 184 kts 187°
2026-05-04 22:31 36.04584 -86.69849 3873 ft 200 kts 189°
2026-05-04 22:31 36.03141 -86.70043 4361 ft 219 kts 188°
2026-05-04 22:32 36.01573 -86.70223 4931 ft 236 kts 187°
2026-05-04 22:32 35.99890 -86.70406 5533 ft 251 kts 188°
2026-05-04 22:32 35.98122 -86.70603 6189 ft 263 kts 188°
2026-05-04 22:32 35.96290 -86.70811 7052 ft 266 kts 188°
2026-05-04 22:33 35.94453 -86.71024 7905 ft 269 kts 188°
2026-05-04 22:33 35.92592 -86.71245 8721 ft 273 kts 189°
2026-05-04 22:33 35.90710 -86.71463 9491 ft 277 kts 189°
2026-05-04 22:33 35.88780 -86.71689 10263 ft 282 kts 189°
2026-05-04 22:34 35.86779 -86.71926 10799 ft 296 kts 189°
2026-05-04 22:34 35.84672 -86.72173 11303 ft 311 kts 189°
2026-05-04 22:34 35.82468 -86.72427 11753 ft 327 kts 188°
2026-05-04 22:34 35.80176 -86.72690 12176 ft 342 kts 188°
2026-05-04 22:35 35.77771 -86.72964 12910 ft 348 kts 188°
2026-05-04 22:35 35.75368 -86.73239 13619 ft 352 kts 188°
2026-05-04 22:35 35.72910 -86.73524 14362 ft 356 kts 188°
2026-05-04 22:35 35.70446 -86.73823 15091 ft 359 kts 190°
2026-05-04 22:36 35.67955 -86.74274 15739 ft 363 kts 193°
2026-05-04 22:36 35.65470 -86.74853 16410 ft 367 kts 195°
2026-05-04 22:36 35.62968 -86.75478 17074 ft 370 kts 195°
2026-05-04 22:36 35.60440 -86.76110 17665 ft 375 kts 195°
2026-05-04 22:37 35.57886 -86.76734 18320 ft 378 kts 194°
2026-05-04 22:37 35.55280 -86.77351 18915 ft 383 kts 193°
2026-05-04 22:37 35.52626 -86.77792 19528 ft 389 kts 189°
2026-05-04 22:37 35.49900 -86.78034 20106 ft 395 kts 187°
2026-05-04 22:38 35.47166 -86.78184 20646 ft 400 kts 186°
2026-05-04 22:38 35.44349 -86.78315 21237 ft 404 kts 186°
2026-05-04 22:38 35.41531 -86.78456 21779 ft 408 kts 186°
2026-05-04 22:38 35.38689 -86.78610 22308 ft 412 kts 186°
2026-05-04 22:39 35.35818 -86.78778 22802 ft 416 kts 186°
2026-05-04 22:39 35.32904 -86.78959 23321 ft 419 kts 186°
2026-05-04 22:39 35.29991 -86.79144 23869 ft 422 kts 187°
2026-05-04 22:39 35.27050 -86.79334 24373 ft 425 kts 186°
2026-05-04 22:40 35.24103 -86.79527 24842 ft 428 kts 187°
2026-05-04 22:40 35.21137 -86.79726 25270 ft 432 kts 187°
2026-05-04 22:40 35.18134 -86.79925 25794 ft 433 kts 187°
2026-05-04 22:40 35.15102 -86.80125 26275 ft 435 kts 187°
2026-05-04 22:41 35.12081 -86.80329 26621 ft 440 kts 186°
2026-05-04 22:41 35.08991 -86.80534 27063 ft 443 kts 186°
2026-05-04 22:41 35.05951 -86.80737 27580 ft 443 kts 187°
2026-05-04 22:41 35.02867 -86.80943 27940 ft 447 kts 187°
2026-05-04 22:42 34.99761 -86.81149 28336 ft 449 kts 187°
2026-05-04 22:42 34.96613 -86.81358 28781 ft 451 kts 186°
2026-05-04 22:42 34.93475 -86.81567 29129 ft 454 kts 187°
2026-05-04 22:42 34.90310 -86.81776 29505 ft 457 kts 186°
2026-05-04 22:43 34.87138 -86.81983 29908 ft 459 kts 187°
2026-05-04 22:43 34.83968 -86.82161 30333 ft 460 kts 186°
2026-05-04 22:43 34.80781 -86.82136 30784 ft 463 kts 181°
2026-05-04 22:43 34.77538 -86.81700 31195 ft 468 kts 174°
2026-05-04 22:44 34.74355 -86.80894 31529 ft 472 kts 170°
2026-05-04 22:44 34.71171 -86.79848 31924 ft 474 kts 167°
2026-05-04 22:44 34.68003 -86.78701 32301 ft 475 kts 167°
2026-05-04 22:44 34.64867 -86.77548 32658 ft 476 kts 167°
2026-05-04 22:45 34.61682 -86.76393 32954 ft 477 kts 168°
2026-05-04 22:45 34.55317 -86.74161 33728 ft 476 kts 169°
2026-05-04 22:45 34.52158 -86.73085 34012 ft 477 kts 169°
2026-05-04 22:46 34.48921 -86.72002 34205 ft 480 kts 169°
2026-05-04 22:46 34.45721 -86.70942 34539 ft 481 kts 169°
2026-05-04 22:46 34.42477 -86.69872 34904 ft 480 kts 170°
2026-05-04 22:46 34.39269 -86.68817 34939 ft 482 kts 170°
2026-05-04 22:47 34.32807 -86.66702 34964 ft 480 kts 170°
2026-05-04 22:47 34.26372 -86.64610 34972 ft 483 kts 170°
2026-05-04 22:48 34.20354 -86.62647 34972 ft 483 kts 170°
2026-05-04 22:48 34.13860 -86.60538 34954 ft 482 kts 171°
2026-05-04 22:49 34.07378 -86.58434 34967 ft 487 kts 171°
2026-05-04 22:49 34.00854 -86.56319 34969 ft 488 kts 170°
2026-05-04 22:50 33.94305 -86.54198 34975 ft 489 kts 170°
2026-05-04 22:50 33.87759 -86.52077 34979 ft 486 kts 171°
2026-05-04 22:51 33.81214 -86.49957 34976 ft 489 kts 171°
2026-05-04 22:51 33.74683 -86.47847 34989 ft 488 kts 171°
2026-05-04 22:52 33.68097 -86.45727 34995 ft 488 kts 171°
2026-05-04 22:52 33.61548 -86.43622 34989 ft 491 kts 171°
2026-05-04 22:53 33.54941 -86.41510 34999 ft 491 kts 171°
2026-05-04 22:53 33.48351 -86.39401 35008 ft 491 kts 171°
2026-05-04 22:54 33.41768 -86.37299 34988 ft 492 kts 171°
2026-05-04 22:54 33.35178 -86.35194 34991 ft 494 kts 172°
2026-05-04 22:55 33.28562 -86.33081 34999 ft 492 kts 172°
2026-05-04 22:55 33.21937 -86.30971 35007 ft 496 kts 172°
2026-05-04 22:56 33.15257 -86.28851 35017 ft 496 kts 172°
2026-05-04 22:56 33.08628 -86.26753 35018 ft 493 kts 172°
2026-05-04 22:57 33.01990 -86.24654 35009 ft 496 kts 173°
2026-05-04 22:57 32.95303 -86.22541 35008 ft 497 kts 172°
2026-05-04 22:58 32.88583 -86.20418 34997 ft 498 kts 172°
2026-05-04 22:58 32.81888 -86.18308 34996 ft 500 kts 173°
2026-05-04 22:59 32.75198 -86.16209 35001 ft 500 kts 172°
2026-05-04 22:59 32.68479 -86.14099 34992 ft 500 kts 172°
2026-05-04 23:00 32.61731 -86.11987 35001 ft 504 kts 172°
2026-05-04 23:00 32.54993 -86.09866 34991 ft 499 kts 173°
2026-05-04 23:01 32.48254 -86.07749 34991 ft 502 kts 173°
2026-05-04 23:01 32.41514 -86.05646 34992 ft 501 kts 173°
2026-05-04 23:02 32.34744 -86.03547 34989 ft 505 kts 173°
2026-05-04 23:02 32.27938 -86.01430 34987 ft 510 kts 174°
2026-05-04 23:03 32.21114 -85.99304 34992 ft 509 kts 173°
2026-05-04 23:03 32.14331 -85.97191 34993 ft 500 kts 173°
2026-05-04 23:04 32.07565 -85.95097 34996 ft 507 kts 173°
2026-05-04 23:04 32.00719 -85.92982 34999 ft 511 kts 174°
2026-05-04 23:05 31.93882 -85.90865 35007 ft 509 kts 173°
2026-05-04 23:05 31.87063 -85.88761 35003 ft 507 kts 173°
2026-05-04 23:06 31.80197 -85.86434 35016 ft 520 kts 167°
2026-05-04 23:06 31.76934 -85.84583 35004 ft 526 kts 153°
2026-05-04 23:06 31.74078 -85.81907 35010 ft 532 kts 138°
2026-05-04 23:07 31.68988 -85.75575 35009 ft 534 kts 133°
2026-05-04 23:07 31.64163 -85.68996 35005 ft 534 kts 131°
2026-05-04 23:08 31.59266 -85.62399 35014 ft 535 kts 133°
2026-05-04 23:08 31.54331 -85.55916 35012 ft 535 kts 134°
2026-05-04 23:09 31.49384 -85.49502 35023 ft 532 kts 133°
2026-05-04 23:09 31.44427 -85.43105 35026 ft 532 kts 134°
2026-05-04 23:10 31.39494 -85.36767 35026 ft 530 kts 133°
2026-05-04 23:10 31.34529 -85.30384 35029 ft 531 kts 134°
2026-05-04 23:11 31.29585 -85.24033 35028 ft 530 kts 134°
2026-05-04 23:11 31.24620 -85.17654 35020 ft 529 kts 135°
2026-05-04 23:12 31.19684 -85.11337 35024 ft 528 kts 135°
2026-05-04 23:12 31.14726 -85.05006 35011 ft 527 kts 134°
2026-05-04 23:13 31.09756 -84.98695 35018 ft 530 kts 135°
2026-05-04 23:13 31.04772 -84.92364 35011 ft 529 kts 134°
2026-05-04 23:14 30.99848 -84.86108 35015 ft 529 kts 135°
2026-05-04 23:14 30.94886 -84.79806 35017 ft 528 kts 134°
2026-05-04 23:15 30.89940 -84.73540 35019 ft 526 kts 134°
2026-05-04 23:15 30.85002 -84.67284 35021 ft 524 kts 135°
2026-05-04 23:16 30.80042 -84.61015 35022 ft 529 kts 135°
2026-05-04 23:16 30.75115 -84.54795 35020 ft 522 kts 134°
2026-05-04 23:17 30.70187 -84.48604 35016 ft 525 kts 134°
2026-05-04 23:17 30.65231 -84.42376 35029 ft 524 kts 134°
2026-05-04 23:18 30.60318 -84.36211 35015 ft 521 kts 134°
2026-05-04 23:18 30.55393 -84.30054 35024 ft 522 kts 136°
2026-05-04 23:19 30.50450 -84.23871 35028 ft 521 kts 135°
2026-05-04 23:19 30.45522 -84.17712 35019 ft 523 kts 135°
2026-05-04 23:20 30.40557 -84.11659 35019 ft 522 kts 139°
2026-05-04 23:20 30.34953 -84.06337 35024 ft 518 kts 149°
2026-05-04 23:21 30.28952 -84.01854 35021 ft 511 kts 155°
2026-05-04 23:21 30.22816 -83.97739 35023 ft 514 kts 156°
2026-05-04 23:22 30.16556 -83.93662 35019 ft 514 kts 156°
2026-05-04 23:22 30.10345 -83.89615 35025 ft 513 kts 156°
2026-05-04 23:23 30.04158 -83.85559 35030 ft 513 kts 156°
2026-05-04 23:23 29.97950 -83.81479 35029 ft 514 kts 155°
2026-05-04 23:24 29.91799 -83.77423 35023 ft 510 kts 156°
2026-05-04 23:24 29.85622 -83.73343 35027 ft 514 kts 155°
2026-05-04 23:25 29.79468 -83.69292 35022 ft 507 kts 156°
2026-05-04 23:25 29.73326 -83.65276 35019 ft 510 kts 156°
2026-05-04 23:26 29.67171 -83.61259 35020 ft 510 kts 155°
2026-05-04 23:26 29.61019 -83.57238 35020 ft 507 kts 156°
2026-05-04 23:27 29.54868 -83.53215 35018 ft 508 kts 155°
2026-05-04 23:27 29.48723 -83.49202 35016 ft 509 kts 155°
2026-05-04 23:28 29.42601 -83.45208 35017 ft 508 kts 156°
2026-05-04 23:28 29.36466 -83.41213 35015 ft 507 kts 155°
2026-05-04 23:29 29.30311 -83.37220 35013 ft 508 kts 155°
2026-05-04 23:29 29.24200 -83.33343 35012 ft 505 kts 159°
2026-05-04 23:30 29.17839 -83.29936 35011 ft 501 kts 163°
2026-05-04 23:30 29.11447 -83.26790 35007 ft 502 kts 163°
2026-05-04 23:31 29.05030 -83.23644 35005 ft 502 kts 163°
2026-05-04 23:31 28.98606 -83.20455 34997 ft 505 kts 162°
2026-05-04 23:32 28.92206 -83.17250 34993 ft 502 kts 162°
2026-05-04 23:32 28.85842 -83.14036 34994 ft 501 kts 162°
2026-05-04 23:33 28.79413 -83.10795 34990 ft 503 kts 162°
2026-05-04 23:33 28.73014 -83.07579 34991 ft 505 kts 162°
2026-05-04 23:34 28.66621 -83.04363 34990 ft 503 kts 162°
2026-05-04 23:34 28.60227 -83.01157 34989 ft 503 kts 162°
2026-05-04 23:35 28.53829 -82.97953 34989 ft 502 kts 163°
2026-05-04 23:35 28.47444 -82.94759 34989 ft 499 kts 162°
2026-05-04 23:36 28.41090 -82.91586 34992 ft 501 kts 162°
2026-05-04 23:36 28.34703 -82.88399 34991 ft 498 kts 162°
2026-05-04 23:37 28.28389 -82.85251 34992 ft 499 kts 162°
2026-05-04 23:37 28.22000 -82.82070 34994 ft 500 kts 162°
2026-05-04 23:38 28.15651 -82.78915 34997 ft 499 kts 162°
2026-05-04 23:38 28.09342 -82.75780 34997 ft 497 kts 162°
2026-05-04 23:39 28.02973 -82.72757 35001 ft 494 kts 167°
2026-05-04 23:39 27.96543 -82.70739 34998 ft 484 kts 175°
2026-05-04 23:40 27.89973 -82.69313 35000 ft 482 kts 177°
2026-05-04 23:40 27.83357 -82.68050 34997 ft 482 kts 178°
2026-05-04 23:41 27.76800 -82.66807 34995 ft 481 kts 178°
2026-05-04 23:41 27.70139 -82.65542 34992 ft 483 kts 178°
2026-05-04 23:42 27.63550 -82.64268 34990 ft 482 kts 178°
2026-05-04 23:42 27.56903 -82.62969 34994 ft 484 kts 177°
2026-05-04 23:43 27.50321 -82.61612 34993 ft 485 kts 175°
2026-05-04 23:43 27.43772 -82.59758 34993 ft 488 kts 172°
2026-05-04 23:44 27.37267 -82.57729 34993 ft 487 kts 171°
2026-05-04 23:44 27.30702 -82.55714 34990 ft 489 kts 171°
2026-05-04 23:45 27.24135 -82.53738 34991 ft 487 kts 172°
2026-05-04 23:45 27.17593 -82.51806 34992 ft 488 kts 172°
2026-05-04 23:46 27.11028 -82.49886 34985 ft 488 kts 172°
2026-05-04 23:46 27.04442 -82.47962 34987 ft 488 kts 172°
2026-05-04 23:47 26.97899 -82.46057 34986 ft 487 kts 172°
2026-05-04 23:47 26.91410 -82.43667 34983 ft 497 kts 159°
2026-05-04 23:48 26.88446 -82.41650 34987 ft 505 kts 148°
2026-05-04 23:48 26.85663 -82.39238 34989 ft 506 kts 144°
2026-05-04 23:48 26.80378 -82.34019 34980 ft 509 kts 141°
2026-05-04 23:49 26.75157 -82.28718 34981 ft 506 kts 141°
2026-05-04 23:49 26.69884 -82.23502 34656 ft 504 kts 142°
2026-05-04 23:50 26.67279 -82.20971 34152 ft 499 kts 143°
2026-05-04 23:50 26.64669 -82.18456 33649 ft 495 kts 142°
2026-05-04 23:50 26.62045 -82.15942 33152 ft 491 kts 142°
2026-05-04 23:50 26.59473 -82.13489 32675 ft 487 kts 143°
2026-05-04 23:51 26.56919 -82.11058 32199 ft 483 kts 143°
2026-05-04 23:51 26.54374 -82.08637 31723 ft 479 kts 143°
2026-05-04 23:51 26.51851 -82.06229 31248 ft 476 kts 142°
2026-05-04 23:51 26.49401 -82.03824 30779 ft 472 kts 142°
2026-05-04 23:52 26.46956 -82.01373 30309 ft 469 kts 141°
2026-05-04 23:52 26.44552 -81.98938 29834 ft 465 kts 141°
2026-05-04 23:52 26.42200 -81.96543 29376 ft 462 kts 141°
2026-05-04 23:52 26.39814 -81.94114 28908 ft 458 kts 142°
2026-05-04 23:53 26.37468 -81.91737 28456 ft 454 kts 142°
2026-05-04 23:53 26.35160 -81.89402 28004 ft 451 kts 142°
2026-05-04 23:53 26.32831 -81.87050 27546 ft 447 kts 142°
2026-05-04 23:53 26.30565 -81.84767 27097 ft 443 kts 142°
2026-05-04 23:54 26.28280 -81.82470 26641 ft 440 kts 142°
2026-05-04 23:54 26.26043 -81.80183 26188 ft 438 kts 140°
2026-05-04 23:54 26.23912 -81.77711 25725 ft 438 kts 133°
2026-05-04 23:54 26.22171 -81.74977 25258 ft 438 kts 123°
2026-05-04 23:55 26.20698 -81.71986 24711 ft 439 kts 118°
2026-05-04 23:55 26.19403 -81.68949 24154 ft 438 kts 116°
2026-05-04 23:55 26.16960 -81.62865 23046 ft 428 kts 115°
2026-05-04 23:56 26.15736 -81.59858 22499 ft 423 kts 116°
2026-05-04 23:56 26.14519 -81.56931 21972 ft 418 kts 116°
2026-05-04 23:56 26.13292 -81.54032 21433 ft 413 kts 117°
2026-05-04 23:56 26.12063 -81.51160 20901 ft 409 kts 117°
2026-05-04 23:57 26.10847 -81.48340 20383 ft 405 kts 117°
2026-05-04 23:57 26.09626 -81.45531 19850 ft 401 kts 117°
2026-05-04 23:57 26.08415 -81.42755 19316 ft 398 kts 117°
2026-05-04 23:57 26.07217 -81.40013 18784 ft 394 kts 117°
2026-05-04 23:58 26.06029 -81.37300 18256 ft 391 kts 117°
2026-05-04 23:58 26.04850 -81.34595 17739 ft 388 kts 117°
2026-05-04 23:58 26.03681 -81.31907 17199 ft 384 kts 118°
2026-05-04 23:58 26.02532 -81.29263 16676 ft 381 kts 118°
2026-05-04 23:59 26.01393 -81.26646 16149 ft 377 kts 118°
2026-05-04 23:59 26.00257 -81.24043 15624 ft 374 kts 117°
2026-05-04 23:59 25.99126 -81.21456 15097 ft 370 kts 117°
2026-05-04 23:59 25.98018 -81.18914 14584 ft 367 kts 118°
2026-05-05 00:00 25.96913 -81.16386 14110 ft 362 kts 118°
2026-05-05 00:00 25.96540 -81.15533 13948 ft 360 kts 118°
2026-05-05 00:00 25.94749 -81.11450 13157 ft 352 kts 118°
2026-05-05 00:00 25.93676 -81.09000 12675 ft 347 kts 118°
2026-05-05 00:01 25.92635 -81.06626 12217 ft 342 kts 118°
2026-05-05 00:01 25.91611 -81.04286 11794 ft 337 kts 118°
2026-05-05 00:01 25.90621 -81.01938 11411 ft 329 kts 116°
2026-05-05 00:01 25.89741 -80.99663 11055 ft 321 kts 115°
2026-05-05 00:02 25.88894 -80.97391 10693 ft 314 kts 115°
2026-05-05 00:02 25.88071 -80.95180 10345 ft 310 kts 115°
2026-05-05 00:02 25.87245 -80.92989 9981 ft 307 kts 116°
2026-05-05 00:02 25.86422 -80.90833 9620 ft 302 kts 116°
2026-05-05 00:03 25.85601 -80.88699 9252 ft 297 kts 116°
2026-05-05 00:03 25.84798 -80.86616 8896 ft 294 kts 116°
2026-05-05 00:03 25.84005 -80.84551 8538 ft 291 kts 115°
2026-05-05 00:03 25.83218 -80.82496 8173 ft 288 kts 115°
2026-05-05 00:04 25.82438 -80.80471 7813 ft 285 kts 115°
2026-05-05 00:04 25.81668 -80.78472 7400 ft 282 kts 115°
2026-05-05 00:04 25.80892 -80.76464 6870 ft 284 kts 114°
2026-05-05 00:04 25.80120 -80.74470 6414 ft 282 kts 114°
2026-05-05 00:05 25.79359 -80.72501 6155 ft 271 kts 114°
2026-05-05 00:05 25.78626 -80.70616 5912 ft 262 kts 114°
2026-05-05 00:05 25.77917 -80.68790 5666 ft 254 kts 114°
2026-05-05 00:05 25.77262 -80.66982 5268 ft 253 kts 107°
2026-05-05 00:06 25.77011 -80.65069 4810 ft 251 kts 88°
2026-05-05 00:06 25.77149 -80.63155 4377 ft 249 kts 83°
2026-05-05 00:06 25.77329 -80.61281 4030 ft 242 kts 84°
2026-05-05 00:06 25.77444 -80.59493 3969 ft 224 kts 87°
2026-05-05 00:07 25.77489 -80.57825 3983 ft 205 kts 87°
2026-05-05 00:07 25.77543 -80.56286 3987 ft 198 kts 86°
2026-05-05 00:07 25.77616 -80.54768 3981 ft 200 kts 85°
2026-05-05 00:07 25.77687 -80.53220 3862 ft 198 kts 86°
2026-05-05 00:08 25.77748 -80.51720 3601 ft 195 kts 86°
2026-05-05 00:08 25.77811 -80.50240 3339 ft 192 kts 86°
2026-05-05 00:08 25.77876 -80.48779 3081 ft 189 kts 85°
2026-05-05 00:08 25.77939 -80.47340 2830 ft 184 kts 86°
2026-05-05 00:09 25.77996 -80.45976 2591 ft 171 kts 86°
2026-05-05 00:09 25.78048 -80.44710 2373 ft 158 kts 86°
2026-05-05 00:09 25.78099 -80.43535 2170 ft 152 kts 85°
2026-05-05 00:09 25.78154 -80.42342 1963 ft 153 kts 85°
2026-05-05 00:10 25.78200 -80.41222 1776 ft 140 kts 85°
2026-05-05 00:10 25.78243 -80.40144 1581 ft 139 kts 85°
2026-05-05 00:10 25.78291 -80.39075 1405 ft 140 kts 85°
2026-05-05 00:10 25.78334 -80.38010 1225 ft 140 kts 85°
2026-05-05 00:11 25.78380 -80.36927 1043 ft 140 kts 85°
2026-05-05 00:11 25.78430 -80.35850 863 ft 141 kts 85°
2026-05-05 00:11 25.78483 -80.34767 677 ft 142 kts 85°
2026-05-05 00:11 25.78535 -80.33687 495 ft 139 kts 87°
2026-05-05 00:12 25.78564 -80.32639 320 ft 140 kts 87°
2026-05-05 00:12 25.78610 -80.31537 124 ft 143 kts 86°
2026-05-05 00:12 25.78654 -80.30481 16 ft 132 kts 86°
2026-05-05 00:12 25.78688 -80.29619 11 ft 82 kts 86°
2026-05-05 00:13 25.78706 -80.29183 14 ft 43 kts 86°
2026-05-05 00:13 25.78717 -80.28924 14 ft 19 kts 88°
2026-05-05 00:13 25.78734 -80.28790 14 ft 15 kts 71°
2026-05-05 00:13 25.78795 -80.28699 14 ft 14 kts 40°
2026-05-05 00:14 25.78869 -80.28632 14 ft 13 kts 39°
2026-05-05 00:14 25.78940 -80.28573 14 ft 12 kts 35°
2026-05-05 00:14 25.79007 -80.28522 14 ft 11 kts 33°
2026-05-05 00:14 25.79074 -80.28474 12 ft 12 kts 32°
2026-05-05 00:15 25.79147 -80.28423 11 ft 12 kts 34°
2026-05-05 00:15 25.79169 -80.28371 11 ft 7 kts 116°
2026-05-05 00:15 25.79145 -80.28323 11 ft 6 kts 118°
2026-05-05 00:15 25.79121 -80.28279 11 ft 8 kts 123°
2026-05-05 00:16 25.79084 -80.28220 11 ft 9 kts 117°
2026-05-05 00:16 25.79055 -80.28159 11 ft 8 kts 117°
2026-05-05 00:16 25.79058 -80.28104 11 ft 7 kts 55°
2026-05-05 00:16 25.79107 -80.28059 11 ft 11 kts 28°
2026-05-05 00:17 25.79176 -80.28020 11 ft 10 kts 27°
2026-05-05 00:17 25.79231 -80.27979 11 ft 7 kts 59°
2026-05-05 00:17 25.79224 -80.27956 11 ft 3 kts 152°
2026-05-05 00:17 25.79207 -80.27942 11 ft 2 kts 144°
2026-05-05 00:18 25.79194 -80.27932 11 ft 0 kts 145°